User: anonymous   Login
Location: Unspecified
(0.0000°N, 0.0000°E)
Time: 00:25:19
(UTC+00:00)
Language:

Courier 1B - Orbit

View from above orbital plane
View from above orbital plane
View from above satellite
View from above satellite

Ground track
Ground track

The orbit data is extracted from the following two-line orbital elements,

1 00058U 60013A   15028.36138643  .00000105  00000-0  32391-4 0  8664
2 00058 028.3291 353.9953 0164923 343.8612 015.6727 13.46287096673863
Epoch (UTC): 28 January 2015 08:40:23
Eccentricity: 0.0164923
inclination: 28.3291°
perigee height: 963 km
apogee height: 1209 km
right ascension of ascending node: 353.9953°
argument of perigee: 343.8612°
revolutions per day: 13.46287096
mean anomaly at epoch: 15.6727°
orbit number at epoch: 67386

The dashed part of the orbit path shows where the satellite is in the earth's shadow,  

DLR